Regional Weather Roundup
Issued by NWS Charleston, SC

Current Version | Previous Version | Graphics & Text | Print | Product List | Glossary On
Versions: 1 2 3 4 5 6 7 8 9 10 11 12 13 14 15 16 17 18 19 20 21 22 23 24 25 26 27 28 29 30 31 32 33 34 35 36 37 38 39 40 41 42 43 44 45 46 47 48 49 50
000 ASUS42 KCHS 202025 RWRCHS REGIONAL WEATHER ROUNDUP NATIONAL WEATHER SERVICE CHARLESTON SC 400 PM EDT WED SEP 20 2017 NOTE: "FAIR" INDICATES FEW OR NO CLOUDS BELOW 12,000 FEET WITH NO SIGNIFICANT WEATHER AND/OR OBSTRUCTIONS TO VISIBILITY. NOT ALL STATIONS ARE QUALITY CONTROLLED. USE DATA WITH CAUTION... ESPECIALLY DEWPOINT OBSERVATIONS. SCZ027-030-031-034>040-042>050-202100- ...SOUTHEAST SOUTH CAROLINA... CITY SKY/WX TMP DP RH WIND PRES REMARKS N CHARLESTON MOSUNNY 91 69 48 W3 29.96F HX 96 WATERFRONT PRK N/A 84 73 69 S8 29.82F HX 90 JOHNS ISLAND FAIR 88 73 62 S9 29.97F HX 96 PINOPOLIS N/A 84 72 65 VRB3 29.91F MONCKS CORNER FAIR 88 64 45 NW3 29.97F SUMMERVILLE FAIR 90 68 48 CALM 29.97F HX 93 BEAUFORT MCAS PTSUNNY 89 73 59 CALM 29.97F HX 97 BEAUFORT ARPT LGT RAIN 86 72 62 W3 29.97F HX 92 HILTON HEAD IS MOSUNNY 82 73 74 SE7 29.99F WALTERBORO PTCLDY 88 68 51 CALM 29.98S HX 91 ALLENDALE NOT AVBL ...SOUTHERN MIDLANDS AND PEE DEE... CITY SKY/WX TMP DP RH WIND PRES REMARKS GEORGETOWN FAIR 88 66 48 NW7 29.98F HX 90 KINGSTREE FAIR 88 64 45 W3 29.96F ORANGEBURG SUNNY 90 64 42 W7 29.96F HX 91 BARNWELL FAIR 91 68 46 CALM 29.97F HX 95 AIKEN FAIR 90 64 43 CALM 30.01F HX 91 MANNING FAIR 88 64 45 CALM 29.97F COLUMBIA MOSUNNY 94 65 38 VRB3 29.96F HX 96 SUMTER MOSUNNY 86 68 54 S8 29.94F FLORENCE PTSUNNY 88 69 53 SW6 29.96F HX 92 MYRTLE BEACH MOSUNNY 85 74 69 S14 29.97F HX 92 N MYRTLE BEACH MOSUNNY 85 73 67 S10 29.96F HX 91 $$ GAZ063-065-086>088-099>101-113>116-118-119-134>141-150-202100- ...SOUTHEAST GEORGIA... CITY SKY/WX TMP DP RH WIND PRES REMARKS SAVANNAH ARPT CLOUDY 89 69 51 NW5 29.97F HX 93 HUNTER AAF SUNNY 91 71 52 NW5 29.94F HX 96 FORT STEWART N/A 91 67 45 CALM 29.93F HX 94 STATESBORO MOSUNNY 91 64 40 E3 29.96F HX 93 SYLVANIA PTCLDY 90 72 55 NE5 29.98F HX 98 CLAXTON FAIR 88 74 62 CALM 29.96F HX 97 ...CSRA...CENTRAL AND FAR SOUTHEAST GEORGIA... CITY SKY/WX TMP DP RH WIND PRES REMARKS THOMSON SUNNY 91 65 42 NW6 30.03F HX 92 AUGUSTA-BUSH SUNNY 91 67 44 CALM 29.96F HX 94 AUGUSTA-DANIEL MOSUNNY 90 65 43 CALM 29.99F HX 92 SWAINSBORO FAIR 90 66 45 NW3 29.98F HX 92 VIDALIA CLOUDY 88 73 62 SW5 29.98F HX 96 EASTMAN CLOUDY 83 61 46 SE7 30.00S HAZLEHURST FAIR 85 61 44 N6 29.97F ALMA MOSUNNY 90 69 50 VRB3 29.95F HX 94 WAYCROSS CLOUDY 91 66 43 SW3 29.96F HX 93 JESUP NOT AVBL BAXLEY FAIR 90 66 45 SW5 29.96F HX 92 BRUNSWICK MOSUNNY 91 61 35 E3 29.97F HX 91 SAINT SIMONS SUNNY 87 73 62 SE10 29.97F HX 94 $$ SCZ027-028-034-036>038-045-046-048>050-GAZ119-141-202100- ...LAKE AND SUPPLEMENTAL COASTAL OBSERVATIONS... STATION/POSITION TIME TEMP WIND PRES WAVE SWELL AIR SEA DIR/SP/G HT/PER HT/PER/DIR (UTC) (F) (DEG/KT/KT) (MB) (FT/S) (FT/S/D) WINYAH BAY 1845 85 150/ 5 1015.0 LAKE MURRAY 1920 86 190/ 7/ 8 1014.2F ACE BASIN NERRS 1845 87 160/ 1 1016.0 FORT PULASKI 1948 86 79 160/ 4/ 9 1015.4F SAPELO ISLAND 1900 90 CALM 1015.0 $$ ANZ835-935-AMZ111-154-330-350-352-354-370-450-454-472-202100- ...C-MAN AND BUOY OBSERVATIONS... STATION/POSITION TIME TEMP WIND PRES WAVE SWELL AIR SEA DIR/SP/G HT/PER HT/PER/DIR (UTC) (F) (DEG/KT/KT) (MB) (FT/S) (FT/S/D) BUOY 41004 1950 81 83 220/ 4/ 6 1015.1F 3/11 3/ 90/11 BUOY 41008 1950 81 82 150/ 10/ 12 1015.2F 2/11 2/ 60/11 FOLLY BEACH CMAN 2000 82 190/ 9/ 11 1015.7F CAPERS NEARSHORE 1908 80 82 210/ 10/ 14 1015.3F FRIPP NEARSHORE 1908 82 180/ 6/ 8 1024.0R STATION/POSITION TIME TEMP WIND PRES WAVE SWELL AIR SEA DIR/SP/G HT/PER HT/PER/DIR (UTC) (F) (DEG/KT/KT) (MB) (FT/S) (FT/S/D) 5E ST. MARYS GA 2000 85 N/A 2/12 2/ 80/12 FRYING PAN BUOY 2000 80 82 250/ 8/ 10 1014.7 BUOY 41025 1950 78 76 260/ 6/ 8 1013.8F 5/11 5/ 80/11 CAPE LOOKOUT NC 2000 81 220/ 9/ 12 1013.7F BUOY 41002 1950 80 81 300/ 6/ 8 1015.5F 7/12 7/ 20/12 BUOY 41010 1950 85 20/ 8/ 10 1015.5F 7/14 7/14 ST AUGUSTINE FL 2000 82 84 110/ 8/ 9 1016.2F $$

USA.gov is the U.S. government's official web portal to all federal, state and local government web resources and services.